| time (UTC) | temp F | wind direction | speed knots | gust knots | rain 1hr in | rain 24hr in | rain mn in | humidity % | barometer mb |
| 20260905025729 | 74 | 225 | 0.0 | 0.0 | 0.00 | 0.00 | 0.01 | 99 | 1017.6 |
| 20260905025314 | 74 | 225 | 0.0 | 0.0 | 0.00 | 0.00 | 0.01 | 99 | 1017.2 |
| 20260905024859 | 74 | 293 | 0.0 | 0.0 | 0.00 | 0.00 | 0.01 | 99 | 1017.2 |
| 20260905024443 | 74 | 270 | 0.0 | 0.0 | 0.00 | 0.00 | 0.01 | 99 | 1017.2 |
| 20260905023539 | 75 | 180 | 0.0 | 0.0 | 0.00 | 0.00 | 0.01 | 99 | 1017.2 |
| 20260905023051 | 75 | 248 | 0.0 | 0.0 | 0.00 | 0.00 | 0.01 | 99 | 1017.2 |
| 20260905022621 | 75 | 248 | 0.0 | 0.0 | 0.00 | 0.00 | 0.01 | 99 | 1017.6 |
| 20260905022204 | 75 | 203 | 0.0 | 0.0 | 0.00 | 0.00 | 0.01 | 99 | 1017.6 |
| 20260905021730 | 75 | 180 | 0.0 | 0.0 | 0.00 | 0.00 | 0.01 | 99 | 1017.6 |
| 20260905021312 | 75 | 203 | 0.0 | 0.0 | 0.00 | 0.00 | 0.01 | 99 | 1017.6 |
| 20260905020857 | 75 | 270 | 0.0 | 0.0 | 0.00 | 0.00 | 0.01 | 99 | 1017.6 |
| 20260905020442 | 75 | 293 | 0.0 | 0.0 | 0.00 | 0.00 | 0.01 | 99 | 1017.6 |
| 20260905020026 | 75 | 225 | 0.0 | 0.0 | 0.00 | 0.00 | 0.01 | 99 | 1017.2 |
| 20260905015610 | 76 | 203 | 0.0 | 0.0 | 0.00 | 0.00 | 0.01 | 99 | 1017.6 |
| 20260905015140 | 76 | 225 | 0.0 | 0.0 | 0.00 | 0.00 | 0.01 | 99 | 1017.6 |
| 20260905014252 | 76 | 203 | 0.0 | 0.0 | 0.00 | 0.00 | 0.01 | 99 | 1017.2 |
| 20260905013836 | 76 | 203 | 0.0 | 0.0 | 0.00 | 0.00 | 0.01 | 99 | 1017.2 |
| 20260905013420 | 76 | 203 | 0.0 | 0.0 | 0.00 | 0.00 | 0.01 | 99 | 1017.2 |
| 20260905012532 | 77 | 225 | 0.0 | 0.0 | 0.00 | 0.00 | 0.01 | 99 | 1017.2 |
| 20260905012116 | 77 | 225 | 0.0 | 0.0 | 0.00 | 0.00 | 0.01 | 99 | 1017.2 |
| 20260905011657 | 77 | 203 | 0.0 | 1.7 | 0.00 | 0.00 | 0.01 | 99 | 1016.9 |
| 20260905010753 | 77 | 203 | 1.7 | 1.7 | 0.00 | 0.00 | 0.01 | 99 | 1016.5 |
| 20260905010336 | 77 | 225 | 0.9 | 1.7 | 0.00 | 0.00 | 0.01 | 99 | 1016.5 |
| 20260905005919 | 78 | 203 | 0.0 | 0.0 | 0.00 | 0.00 | 0.01 | 99 | 1016.5 |
| 20260905005503 | 78 | 203 | 0.0 | 0.0 | 0.00 | 0.00 | 0.01 | 99 | 1016.2 |
| 20260905004616 | 78 | 225 | 0.0 | 0.0 | 0.00 | 0.00 | 0.01 | 99 | 1015.9 |
| 20260905004159 | 78 | 203 | 0.0 | 0.0 | 0.00 | 0.00 | 0.01 | 99 | 1015.5 |
| 20260905003742 | 78 | 225 | 0.0 | 0.0 | 0.00 | 0.00 | 0.01 | 99 | 1015.5 |
| 20260905003312 | 78 | 270 | 0.0 | 0.0 | 0.00 | 0.00 | 0.01 | 99 | 1015.2 |
| 20260905002856 | 79 | 270 | 0.9 | 1.7 | 0.00 | 0.00 | 0.01 | 99 | 1015.2 |
| 20260905002439 | 79 | 0 | 1.7 | 1.7 | 0.00 | 0.00 | 0.01 | 99 | 1015.2 |
| 20260905002024 | 79 | 0 | 1.7 | 2.6 | 0.00 | 0.00 | 0.01 | 99 | 1015.2 |
| 20260905001609 | 79 | 225 | 0.0 | 0.0 | 0.00 | 0.00 | 0.01 | 99 | 1014.9 |
| 20260905001152 | 79 | 203 | 0.0 | 0.0 | 0.00 | 0.00 | 0.01 | 99 | 1015.2 |
| 20260905000735 | 80 | 270 | 0.0 | 0.0 | 0.00 | 0.00 | 0.01 | 98 | 1015.2 |
| 20260905000318 | 80 | 248 | 0.0 | 1.7 | 0.00 | 0.00 | 0.01 | 98 | 1015.5 |
| 20260904235856 | 80 | 180 | 0.9 | 1.7 | 0.00 | 0.00 | 0.01 | 97 | 1015.9 |
| 20260904235425 | 80 | 270 | 1.7 | 1.7 | 0.00 | 0.00 | 0.01 | 96 | 1015.9 |
| 20260904235008 | 81 | 225 | 0.0 | 0.0 | 0.00 | 0.00 | 0.01 | 96 | 1016.2 |
| 20260904234123 | 81 | 203 | 2.6 | 2.6 | 0.00 | 0.00 | 0.01 | 94 | 1016.5 |
| 20260904232320 | 84 | 203 | 0.0 | 1.7 | 0.00 | 0.00 | 0.01 | 86 | 1016.9 |
| 20260904231902 | 85 | 225 | 0.0 | 1.7 | 0.00 | 0.00 | 0.01 | 85 | 1016.9 |
| 20260904231447 | 88 | 203 | 1.7 | 1.7 | 0.00 | 0.00 | 0.01 | 81 | 1016.9 |
| 20260904231015 | 87 | 270 | 0.0 | 0.0 | 0.00 | 0.00 | 0.01 | 81 | 1016.9 |
| 20260904230544 | 89 | 225 | 0.0 | 0.0 | 0.00 | 0.00 | 0.01 | 79 | 1016.9 |
| 20260904230113 | 87 | 203 | 0.9 | 2.6 | 0.00 | 0.00 | 0.01 | 83 | 1016.9 |
| 20260904225641 | 89 | 203 | 2.6 | 2.6 | 0.00 | 0.00 | 0.01 | 77 | 1017.2 |
| 20260904225224 | 90 | 203 | 1.7 | 1.7 | 0.00 | 0.00 | 0.01 | 75 | 1017.2 |
| 20260904224321 | 91 | 0 | 1.7 | 1.7 | 0.00 | 0.00 | 0.01 | 74 | 1017.2 |
| 20260904223848 | 92 | 23 | 1.7 | 3.5 | 0.00 | 0.00 | 0.01 | 72 | 1017.2 |
| 20260904223402 | 91 | 0 | 2.6 | 3.5 | 0.00 | 0.00 | 0.01 | 74 | 1017.2 |
| 20260904222945 | 90 | 158 | 0.0 | 0.0 | 0.00 | 0.00 | 0.01 | 75 | 1017.2 |
| 20260904222528 | 89 | 180 | 0.9 | 1.7 | 0.00 | 0.00 | 0.01 | 78 | 1017.6 |
| 20260904222111 | 88 | 203 | 1.7 | 1.7 | 0.00 | 0.00 | 0.01 | 80 | 1017.6 |
| 20260904221639 | 87 | 180 | 2.6 | 2.6 | 0.00 | 0.00 | 0.01 | 82 | 1017.6 |
| 20260904220734 | 88 | 158 | 1.7 | 1.7 | 0.00 | 0.00 | 0.01 | 81 | 1017.9 |
| 20260904220312 | 88 | 180 | 0.0 | 1.7 | 0.00 | 0.00 | 0.01 | 80 | 1017.9 |
| 20260904215854 | 88 | 225 | 1.7 | 2.6 | 0.00 | 0.00 | 0.01 | 80 | 1017.9 |
| 20260904215438 | 88 | 203 | 1.7 | 1.7 | 0.00 | 0.00 | 0.01 | 80 | 1017.9 |
| 20260904215004 | 89 | 225 | 0.0 | 0.0 | 0.00 | 0.00 | 0.01 | 79 | 1017.9 |
| 20260904214548 | 89 | 45 | 0.0 | 0.9 | 0.00 | 0.00 | 0.01 | 80 | 1017.9 |
| 20260904214128 | 89 | 315 | 3.5 | 4.3 | 0.00 | 0.00 | 0.01 | 80 | 1017.9 |
| 20260904213655 | 89 | 68 | 2.6 | 3.5 | 0.00 | 0.00 | 0.01 | 81 | 1017.9 |
| 20260904213238 | 88 | 0 | 1.7 | 1.7 | 0.00 | 0.00 | 0.01 | 86 | 1017.2 |
| 20260904212804 | 86 | 248 | 0.9 | 2.6 | 0.00 | 0.00 | 0.01 | 90 | 1017.2 |
| 20260904212348 | 87 | 180 | 2.6 | 2.6 | 0.00 | 0.00 | 0.01 | 88 | 1017.2 |
| 20260904211027 | 90 | 225 | 0.0 | 1.7 | 0.00 | 0.00 | 0.01 | 78 | 1017.2 |
| 20260904210539 | 89 | 270 | 0.0 | 0.0 | 0.00 | 0.00 | 0.01 | 79 | 1017.2 |
| 20260904210123 | 90 | 315 | 1.7 | 1.7 | 0.00 | 0.00 | 0.01 | 78 | 1017.2 |
| 20260904205707 | 88 | 270 | 0.0 | 0.9 | 0.00 | 0.00 | 0.01 | 81 | 1016.9 |
| 20260904205236 | 89 | 23 | 0.0 | 0.0 | 0.00 | 0.00 | 0.01 | 80 | 1016.9 |
| 20260904204803 | 90 | 248 | 1.7 | 1.7 | 0.00 | 0.00 | 0.01 | 78 | 1016.9 |
| 20260904204345 | 89 | 23 | 0.0 | 0.9 | 0.00 | 0.00 | 0.01 | 80 | 1016.9 |
| 20260904203442 | 89 | 0 | 2.6 | 2.6 | 0.00 | 0.00 | 0.01 | 80 | 1016.9 |
| 20260904203010 | 88 | 180 | 0.9 | 1.7 | 0.00 | 0.00 | 0.01 | 82 | 1016.9 |
| 20260904202554 | 87 | 180 | 1.7 | 2.6 | 0.00 | 0.00 | 0.01 | 82 | 1017.2 |
| 20260904202138 | 87 | 270 | 1.7 | 1.7 | 0.00 | 0.00 | 0.01 | 82 | 1017.6 |
| 20260904201721 | 89 | 203 | 1.7 | 1.7 | 0.00 | 0.00 | 0.01 | 79 | 1017.6 |
| 20260904201304 | 89 | 225 | 0.0 | 0.0 | 0.00 | 0.00 | 0.01 | 76 | 1017.6 |
| 20260904200358 | 90 | 180 | 0.9 | 1.7 | 0.00 | 0.00 | 0.01 | 74 | 1017.9 |
| 20260904195925 | 90 | 0 | 0.0 | 0.0 | 0.00 | 0.00 | 0.01 | 71 | 1017.9 |
| 20260904194128 | 91 | 23 | 2.6 | 2.6 | 0.00 | 0.00 | 0.01 | 70 | 1017.6 |
| 20260904192751 | 90 | 158 | 0.0 | 1.7 | 0.00 | 0.00 | 0.01 | 71 | 1017.6 |
| 20260904191905 | 90 | 0 | 4.3 | 5.2 | 0.00 | 0.00 | 0.01 | 72 | 1017.9 |
| 20260904191434 | 89 | 45 | 2.6 | 2.6 | 0.00 | 0.00 | 0.01 | 72 | 1017.9 |
| 20260904191000 | 89 | 23 | 1.7 | 3.5 | 0.00 | 0.00 | 0.01 | 74 | 1017.9 |
| 20260904190546 | 90 | 23 | 2.6 | 5.2 | 0.00 | 0.00 | 0.01 | 72 | 1017.9 |
| 20260904190116 | 91 | 0 | 2.6 | 2.6 | 0.00 | 0.00 | 0.01 | 72 | 1017.9 |
| 20260904185645 | 91 | 45 | 1.7 | 6.1 | 0.00 | 0.00 | 0.01 | 71 | 1017.9 |
| 20260904185227 | 92 | 23 | 1.7 | 6.1 | 0.00 | 0.00 | 0.01 | 70 | 1017.9 |
| 20260904184739 | 94 | 45 | 10.4 | 10.4 | 0.00 | 0.00 | 0.01 | 67 | 1017.6 |
| 20260904183850 | 94 | 338 | 1.7 | 3.5 | 0.00 | 0.00 | 0.01 | 66 | 1017.6 |
| 20260904183433 | 94 | 0 | 1.7 | 2.6 | 0.00 | 0.00 | 0.01 | 64 | 1017.6 |
| 20260904183018 | 95 | 0 | 2.6 | 5.2 | 0.00 | 0.00 | 0.01 | 62 | 1017.6 |
| 20260904182600 | 96 | 23 | 5.2 | 7.0 | 0.00 | 0.00 | 0.01 | 61 | 1017.9 |
| 20260904182146 | 95 | 45 | 4.3 | 5.2 | 0.00 | 0.00 | 0.01 | 61 | 1017.6 |
| 20260904181256 | 97 | 23 | 5.2 | 6.1 | 0.00 | 0.00 | 0.01 | 60 | 1017.9 |
| 20260904180839 | 98 | 45 | 3.5 | 5.2 | 0.00 | 0.00 | 0.01 | 58 | 1017.6 |
| 20260904175904 | 98 | 338 | 1.7 | 5.2 | 0.00 | 0.00 | 0.01 | 58 | 1017.6 |
| 20260904175448 | 98 | 45 | 5.2 | 5.2 | 0.00 | 0.00 | 0.01 | 59 | 1017.6 |
| 20260904175015 | 98 | 23 | 2.6 | 3.5 | 0.00 | 0.00 | 0.01 | 57 | 1017.6 |
| 20260904174542 | 100 | 23 | 2.6 | 4.3 | 0.00 | 0.00 | 0.01 | 56 | 1017.9 |
| 20260904174109 | 99 | 45 | 3.5 | 4.3 | 0.00 | 0.00 | 0.01 | 57 | 1017.9 |
| 20260904173622 | 99 | 180 | 0.9 | 3.5 | 0.00 | 0.00 | 0.01 | 57 | 1018.2 |
| 20260904172713 | 100 | 0 | 4.3 | 7.0 | 0.00 | 0.00 | 0.01 | 58 | 1018.2 |
| 20260904172256 | 99 | 270 | 0.0 | 3.5 | 0.00 | 0.00 | 0.01 | 59 | 1018.2 |
| 20260904171839 | 99 | 45 | 4.3 | 7.0 | 0.00 | 0.00 | 0.01 | 58 | 1018.2 |
| 20260904171422 | 100 | 225 | 1.7 | 4.3 | 0.00 | 0.00 | 0.01 | 60 | 1018.2 |
| 20260904170502 | 99 | 23 | 3.5 | 4.3 | 0.00 | 0.00 | 0.01 | 60 | 1018.2 |
| 20260904170045 | 98 | 23 | 2.6 | 3.5 | 0.00 | 0.00 | 0.01 | 61 | 1018.6 |
| 20260904165628 | 99 | 23 | 1.7 | 4.3 | 0.00 | 0.00 | 0.01 | 61 | 1018.6 |
| 20260904165158 | 98 | 0 | 1.7 | 3.5 | 0.00 | 0.00 | 0.01 | 61 | 1018.2 |
| 20260904164740 | 98 | 248 | 0.9 | 3.5 | 0.00 | 0.00 | 0.01 | 64 | 1018.6 |
| 20260904164323 | 98 | 23 | 0.9 | 0.9 | 0.00 | 0.00 | 0.01 | 63 | 1018.6 |
| 20260904163851 | 99 | 68 | 2.6 | 2.6 | 0.00 | 0.00 | 0.01 | 63 | 1018.6 |
| 20260904163436 | 97 | 225 | 1.7 | 1.7 | 0.00 | 0.00 | 0.01 | 66 | 1018.6 |
| 20260904163017 | 96 | 270 | 0.9 | 2.6 | 0.00 | 0.00 | 0.01 | 68 | 1018.9 |
| 20260904162129 | 96 | 270 | 0.9 | 4.3 | 0.00 | 0.00 | 0.01 | 68 | 1018.9 |
| 20260904161713 | 98 | 203 | 3.5 | 3.5 | 0.00 | 0.00 | 0.01 | 67 | 1018.9 |
| 20260904161241 | 97 | 248 | 2.6 | 3.5 | 0.00 | 0.00 | 0.01 | 68 | 1018.9 |
| 20260904160824 | 97 | 203 | 2.6 | 3.5 | 0.00 | 0.00 | 0.01 | 67 | 1018.9 |
| 20260904160410 | 97 | 225 | 1.7 | 2.6 | 0.00 | 0.00 | 0.01 | 68 | 1019.3 |
| 20260904155953 | 96 | 248 | 1.7 | 3.5 | 0.00 | 0.00 | 0.01 | 69 | 1018.9 |
| 20260904155537 | 95 | 180 | 0.9 | 3.5 | 0.00 | 0.00 | 0.01 | 71 | 1018.9 |
| 20260904155121 | 95 | 270 | 2.6 | 4.3 | 0.00 | 0.00 | 0.01 | 72 | 1019.3 |
| 20260904154702 | 95 | 158 | 1.7 | 4.3 | 0.00 | 0.00 | 0.01 | 72 | 1019.3 |
| 20260904154247 | 94 | 248 | 1.7 | 3.5 | 0.00 | 0.00 | 0.01 | 73 | 1019.3 |
| 20260904153815 | 94 | 180 | 3.5 | 3.5 | 0.00 | 0.00 | 0.01 | 73 | 1019.3 |
| 20260904153358 | 95 | 203 | 1.7 | 1.7 | 0.00 | 0.00 | 0.01 | 74 | 1019.3 |
| 20260904152940 | 94 | 203 | 1.7 | 2.6 | 0.00 | 0.00 | 0.01 | 74 | 1019.3 |
| 20260904152455 | 94 | 180 | 0.9 | 3.5 | 0.00 | 0.00 | 0.01 | 74 | 1019.3 |
| 20260904152039 | 94 | 203 | 1.7 | 2.6 | 0.00 | 0.00 | 0.01 | 76 | 1019.3 |
| 20260904151619 | 94 | 180 | 0.9 | 3.5 | 0.00 | 0.00 | 0.01 | 75 | 1019.3 |
| 20260904151201 | 92 | 180 | 1.7 | 2.6 | 0.00 | 0.00 | 0.01 | 77 | 1019.3 |
| 20260904150745 | 94 | 315 | 0.9 | 2.6 | 0.00 | 0.00 | 0.01 | 76 | 1019.3 |
| 20260904150328 | 93 | 203 | 1.7 | 1.7 | 0.00 | 0.00 | 0.01 | 78 | 1019.3 |
| 20260904145911 | 92 | 203 | 0.0 | 0.9 | 0.00 | 0.00 | 0.01 | 79 | 1019.3 |
| 20260904145438 | 91 | 113 | 1.7 | 1.7 | 0.00 | 0.00 | 0.01 | 80 | 1019.3 |
| 20260904144536 | 91 | 23 | 0.0 | 0.9 | 0.00 | 0.00 | 0.01 | 80 | 1019.3 |
| 20260904143645 | 90 | 23 | 0.0 | 1.7 | 0.00 | 0.00 | 0.01 | 81 | 1019.3 |
| 20260904142757 | 88 | 180 | 1.7 | 2.6 | 0.00 | 0.00 | 0.01 | 84 | 1019.3 |
| 20260904142342 | 88 | 0 | 1.7 | 1.7 | 0.00 | 0.00 | 0.01 | 83 | 1019.3 |
| 20260904141910 | 87 | 225 | 0.0 | 0.0 | 0.00 | 0.00 | 0.01 | 86 | 1019.3 |
| 20260904141454 | 86 | 158 | 0.9 | 1.7 | 0.00 | 0.00 | 0.01 | 86 | 1019.3 |
| 20260904141039 | 87 | 203 | 0.9 | 2.6 | 0.00 | 0.00 | 0.01 | 85 | 1019.3 |
| 20260904140624 | 86 | 203 | 0.9 | 1.7 | 0.00 | 0.00 | 0.01 | 86 | 1019.3 |
| 20260904140208 | 85 | 225 | 0.0 | 2.6 | 0.00 | 0.00 | 0.01 | 89 | 1019.3 |
| 20260904135750 | 86 | 225 | 1.7 | 1.7 | 0.00 | 0.00 | 0.01 | 88 | 1019.3 |
| 20260904135332 | 86 | 180 | 0.0 | 0.9 | 0.00 | 0.00 | 0.01 | 88 | 1019.3 |
| 20260904134914 | 85 | 270 | 0.0 | 0.9 | 0.00 | 0.00 | 0.01 | 90 | 1019.3 |
| 20260904134459 | 84 | 225 | 0.0 | 1.7 | 0.00 | 0.00 | 0.01 | 90 | 1019.3 |
| 20260904134010 | 83 | 270 | 0.0 | 0.0 | 0.00 | 0.00 | 0.01 | 92 | 1019.3 |
| 20260904133555 | 82 | 203 | 0.0 | 0.0 | 0.00 | 0.00 | 0.01 | 93 | 1019.3 |
| 20260904133138 | 82 | 180 | 0.0 | 1.7 | 0.00 | 0.00 | 0.01 | 93 | 1019.3 |
| 20260904132721 | 82 | 180 | 1.7 | 1.7 | 0.00 | 0.00 | 0.01 | 94 | 1019.3 |
| 20260904132251 | 82 | 203 | 1.7 | 1.7 | 0.00 | 0.00 | 0.01 | 95 | 1019.6 |
| 20260904131834 | 80 | 270 | 0.0 | 0.0 | 0.00 | 0.00 | 0.01 | 96 | 1019.6 |
| 20260904131403 | 80 | 203 | 1.7 | 1.7 | 0.00 | 0.00 | 0.01 | 97 | 1019.6 |
| 20260904130946 | 80 | 225 | 0.0 | 0.0 | 0.00 | 0.00 | 0.00 | 97 | 1019.6 |
| 20260904130514 | 80 | 203 | 0.0 | 0.0 | 0.00 | 0.00 | 0.00 | 98 | 1019.6 |
| 20260904130100 | 80 | 158 | 0.0 | 0.0 | 0.00 | 0.00 | 0.00 | 98 | 1019.6 |
| 20260904125628 | 79 | 203 | 0.0 | 0.0 | 0.00 | 0.00 | 0.00 | 99 | 1019.6 |
| 20260904125212 | 78 | 203 | 0.0 | 0.0 | 0.00 | 0.00 | 0.00 | 99 | 1019.6 |
| 20260904124757 | 78 | 180 | 0.0 | 0.0 | 0.00 | 0.00 | 0.00 | 99 | 1019.6 |
| 20260904124325 | 77 | 113 | 0.0 | 0.0 | 0.00 | 0.00 | 0.00 | 99 | 1019.6 |
| 20260904123854 | 77 | 203 | 0.0 | 0.0 | 0.00 | 0.00 | 0.00 | 99 | 1019.6 |
| 20260904123423 | 76 | 180 | 0.0 | 0.0 | 0.00 | 0.00 | 0.00 | 99 | 1019.6 |
| 20260904123009 | 76 | 158 | 0.0 | 0.0 | 0.00 | 0.00 | 0.00 | 99 | 1019.9 |
| 20260904122110 | 75 | 203 | 0.0 | 0.0 | 0.00 | 0.00 | 0.00 | 99 | 1019.6 |
| 20260904121655 | 74 | 203 | 0.0 | 0.0 | 0.00 | 0.00 | 0.00 | 99 | 1019.6 |
| 20260904121242 | 74 | 225 | 0.0 | 0.0 | 0.00 | 0.00 | 0.00 | 99 | 1019.6 |
| 20260904120825 | 74 | 225 | 0.0 | 0.0 | 0.00 | 0.00 | 0.00 | 99 | 1019.6 |
| 20260904120409 | 73 | 203 | 0.0 | 0.0 | 0.00 | 0.00 | 0.00 | 99 | 1019.6 |
| 20260904115952 | 73 | 225 | 0.0 | 0.0 | 0.00 | 0.00 | 0.00 | 99 | 1019.6 |
| 20260904115539 | 72 | 225 | 0.0 | 0.0 | 0.00 | 0.00 | 0.00 | 99 | 1019.6 |
| 20260904115125 | 72 | 248 | 0.0 | 0.0 | 0.00 | 0.00 | 0.00 | 99 | 1019.6 |
| 20260904114709 | 72 | 248 | 0.0 | 0.0 | 0.00 | 0.00 | 0.00 | 99 | 1019.3 |
| 20260904114253 | 72 | 203 | 0.0 | 0.0 | 0.00 | 0.00 | 0.00 | 99 | 1019.3 |
| 20260904113823 | 72 | 293 | 0.0 | 0.0 | 0.00 | 0.00 | 0.00 | 99 | 1019.3 |
| 20260904113408 | 72 | 225 | 0.0 | 0.0 | 0.00 | 0.00 | 0.00 | 99 | 1019.3 |
| 20260904112952 | 72 | 315 | 0.0 | 0.0 | 0.00 | 0.00 | 0.00 | 99 | 1019.3 |
| 20260904112536 | 72 | 180 | 0.0 | 0.0 | 0.00 | 0.00 | 0.00 | 99 | 1019.3 |
| 20260904112122 | 72 | 225 | 0.0 | 0.0 | 0.00 | 0.00 | 0.00 | 99 | 1019.3 |
| 20260904111705 | 72 | 225 | 0.0 | 0.0 | 0.00 | 0.00 | 0.00 | 99 | 1019.3 |
| 20260904111249 | 72 | 248 | 0.0 | 0.0 | 0.00 | 0.00 | 0.00 | 99 | 1019.3 |
| 20260904110834 | 72 | 315 | 0.0 | 0.0 | 0.00 | 0.00 | 0.00 | 99 | 1019.3 |
| 20260904110417 | 72 | 225 | 0.0 | 0.0 | 0.00 | 0.00 | 0.00 | 99 | 1019.3 |
| 20260904105516 | 72 | 203 | 0.0 | 0.0 | 0.00 | 0.00 | 0.00 | 99 | 1019.3 |
| 20260904105059 | 72 | 315 | 0.0 | 0.0 | 0.00 | 0.00 | 0.00 | 99 | 1019.3 |
| 20260904104628 | 72 | 270 | 0.0 | 0.0 | 0.00 | 0.00 | 0.00 | 99 | 1018.9 |
| 20260904104214 | 72 | 270 | 0.0 | 0.0 | 0.00 | 0.00 | 0.00 | 99 | 1018.9 |
| 20260904103312 | 72 | 225 | 0.0 | 0.0 | 0.00 | 0.00 | 0.00 | 99 | 1018.9 |
| 20260904102857 | 72 | 270 | 0.0 | 0.0 | 0.00 | 0.00 | 0.00 | 99 | 1018.9 |
| 20260904102426 | 72 | 270 | 0.0 | 0.0 | 0.00 | 0.00 | 0.00 | 99 | 1018.9 |
| 20260904102010 | 72 | 270 | 0.0 | 0.0 | 0.00 | 0.00 | 0.00 | 99 | 1018.9 |
| 20260904101555 | 72 | 225 | 0.0 | 0.0 | 0.00 | 0.00 | 0.00 | 99 | 1018.9 |
| 20260904101140 | 72 | 225 | 0.0 | 0.0 | 0.00 | 0.00 | 0.00 | 99 | 1018.9 |
| 20260904100725 | 72 | 203 | 0.0 | 0.0 | 0.00 | 0.00 | 0.00 | 99 | 1018.9 |
| 20260904100309 | 72 | 203 | 0.0 | 0.0 | 0.00 | 0.00 | 0.00 | 99 | 1018.9 |
| 20260904095823 | 72 | 225 | 0.0 | 0.0 | 0.00 | 0.00 | 0.00 | 99 | 1018.9 |
| 20260904095408 | 72 | 203 | 0.0 | 0.0 | 0.00 | 0.00 | 0.00 | 99 | 1018.9 |
| 20260904094951 | 72 | 225 | 0.0 | 0.0 | 0.00 | 0.00 | 0.00 | 99 | 1018.9 |
| 20260904094538 | 72 | 225 | 0.0 | 0.0 | 0.00 | 0.00 | 0.00 | 99 | 1018.9 |
| 20260904093634 | 72 | 225 | 0.0 | 0.0 | 0.00 | 0.00 | 0.00 | 99 | 1018.9 |
| 20260904093200 | 72 | 225 | 0.0 | 0.0 | 0.00 | 0.00 | 0.00 | 99 | 1018.9 |
| 20260904092728 | 72 | 203 | 0.0 | 0.0 | 0.00 | 0.00 | 0.00 | 99 | 1018.9 |
| 20260904091813 | 72 | 225 | 0.0 | 0.0 | 0.00 | 0.00 | 0.00 | 99 | 1018.6 |
| 20260904091327 | 72 | 225 | 0.0 | 0.0 | 0.00 | 0.00 | 0.00 | 99 | 1018.6 |
| 20260904090912 | 72 | 225 | 0.0 | 0.0 | 0.00 | 0.00 | 0.00 | 99 | 1018.6 |
| 20260904090457 | 73 | 225 | 0.0 | 0.0 | 0.00 | 0.00 | 0.00 | 99 | 1018.6 |
| 20260904090042 | 72 | 203 | 0.0 | 0.0 | 0.00 | 0.00 | 0.00 | 99 | 1018.6 |
| 20260904085626 | 72 | 203 | 0.0 | 0.0 | 0.00 | 0.00 | 0.00 | 99 | 1018.6 |
| 20260904085212 | 72 | 315 | 0.0 | 0.0 | 0.00 | 0.00 | 0.00 | 99 | 1018.6 |
| 20260904084325 | 72 | 225 | 0.0 | 0.0 | 0.00 | 0.00 | 0.00 | 99 | 1018.2 |
| 20260904083440 | 72 | 203 | 0.0 | 0.0 | 0.00 | 0.00 | 0.00 | 99 | 1018.6 |
| 20260904083025 | 72 | 270 | 0.0 | 0.0 | 0.00 | 0.00 | 0.00 | 99 | 1018.2 |
| 20260904082139 | 72 | 270 | 0.0 | 0.0 | 0.00 | 0.00 | 0.00 | 99 | 1018.2 |
| 20260904081254 | 72 | 248 | 0.0 | 0.0 | 0.00 | 0.00 | 0.00 | 99 | 1018.2 |
| 20260904080410 | 73 | 113 | 0.0 | 0.0 | 0.00 | 0.00 | 0.00 | 99 | 1018.2 |
| 20260904075938 | 72 | 225 | 0.0 | 0.0 | 0.00 | 0.00 | 0.00 | 99 | 1018.2 |
| 20260904075522 | 72 | 248 | 0.0 | 0.0 | 0.00 | 0.00 | 0.00 | 99 | 1018.2 |
| 20260904075106 | 72 | 248 | 0.0 | 0.0 | 0.00 | 0.00 | 0.00 | 99 | 1018.2 |
| 20260904074650 | 72 | 270 | 0.0 | 0.0 | 0.00 | 0.00 | 0.00 | 99 | 1018.2 |
| 20260904072900 | 73 | 270 | 0.0 | 0.0 | 0.00 | 0.00 | 0.00 | 99 | 1018.2 |
| 20260904072446 | 73 | 225 | 0.0 | 0.0 | 0.00 | 0.00 | 0.00 | 99 | 1018.2 |
| 20260904072032 | 73 | 113 | 0.0 | 0.0 | 0.00 | 0.00 | 0.00 | 99 | 1018.2 |
| 20260904071616 | 73 | 225 | 0.0 | 0.0 | 0.00 | 0.00 | 0.00 | 99 | 1018.2 |
| 20260904071158 | 73 | 225 | 0.0 | 0.0 | 0.00 | 0.00 | 0.00 | 99 | 1018.2 |
| 20260904070744 | 73 | 225 | 0.0 | 0.0 | 0.00 | 0.00 | 0.00 | 99 | 1018.2 |
| 20260904070327 | 73 | 225 | 0.0 | 0.0 | 0.00 | 0.00 | 0.00 | 99 | 1018.2 |
| 20260904065912 | 73 | 225 | 0.0 | 0.0 | 0.00 | 0.00 | 0.00 | 99 | 1018.6 |
| 20260904065441 | 73 | 203 | 0.0 | 0.0 | 0.00 | 0.00 | 0.00 | 99 | 1018.6 |
| 20260904065024 | 73 | 270 | 0.0 | 0.0 | 0.00 | 0.00 | 0.00 | 99 | 1018.6 |
| 20260904064607 | 73 | 203 | 0.0 | 0.0 | 0.00 | 0.00 | 0.00 | 99 | 1018.6 |
| 20260904064149 | 73 | 225 | 0.0 | 0.0 | 0.00 | 0.00 | 0.00 | 99 | 1018.2 |
| 20260904063733 | 73 | 225 | 0.0 | 0.0 | 0.00 | 0.00 | 0.00 | 99 | 1018.6 |
| 20260904062830 | 73 | 225 | 0.0 | 0.0 | 0.00 | 0.00 | 0.00 | 99 | 1018.6 |
| 20260904062415 | 73 | 225 | 0.0 | 0.0 | 0.00 | 0.00 | 0.00 | 99 | 1018.6 |
| 20260904061959 | 73 | 203 | 0.0 | 0.0 | 0.00 | 0.00 | 0.00 | 99 | 1018.6 |
| 20260904061544 | 73 | 225 | 0.0 | 0.0 | 0.00 | 0.00 | 0.00 | 99 | 1018.6 |
| 20260904061129 | 74 | 248 | 0.0 | 0.0 | 0.00 | 0.00 | 0.00 | 99 | 1018.6 |
| 20260904060657 | 74 | 203 | 0.0 | 0.0 | 0.00 | 0.00 | 0.00 | 99 | 1018.9 |
| 20260904055811 | 74 | 225 | 0.0 | 0.0 | 0.00 | 0.00 | 0.00 | 99 | 1018.9 |
| 20260904055356 | 74 | 203 | 0.0 | 0.0 | 0.00 | 0.00 | 0.00 | 99 | 1018.9 |
| 20260904054925 | 74 | 225 | 0.0 | 0.0 | 0.00 | 0.00 | 0.00 | 99 | 1018.9 |
| 20260904054509 | 74 | 180 | 0.0 | 0.0 | 0.00 | 0.00 | 0.00 | 99 | 1018.9 |
| 20260904053607 | 74 | 203 | 0.0 | 0.0 | 0.00 | 0.00 | 0.00 | 99 | 1018.9 |
| 20260904052721 | 74 | 203 | 0.0 | 0.0 | 0.00 | 0.00 | 0.00 | 99 | 1018.9 |
| 20260904052139 | 74 | 45 | 0.0 | 0.0 | 0.00 | 0.00 | 0.00 | 99 | 1018.9 |
| 20260904051541 | 74 | 248 | 0.0 | 0.0 | 0.00 | 0.00 | 0.00 | 99 | 1018.9 |
| 20260904050337 | 74 | 225 | 0.0 | 0.0 | 0.00 | 0.00 | 0.00 | 99 | 1018.9 |
| 20260904045739 | 74 | 248 | 0.0 | 0.0 | 0.00 | 0.00 | 0.00 | 99 | 1019.3 |
| 20260904045117 | 74 | 248 | 0.0 | 0.0 | 0.00 | 0.00 | 0.00 | 99 | 1019.3 |
| 20260904044508 | 74 | 203 | 0.0 | 0.0 | 0.00 | 0.00 | 0.00 | 99 | 1019.3 |
| 20260904043947 | 74 | 225 | 0.0 | 0.0 | 0.00 | 0.00 | 0.00 | 99 | 1018.9 |
| 20260904043315 | 75 | 203 | 0.0 | 0.0 | 0.00 | 0.00 | 0.00 | 99 | 1019.3 |
| 20260904042106 | 75 | 203 | 0.0 | 0.0 | 0.00 | 0.00 | 0.00 | 99 | 1018.9 |
| 20260904041546 | 75 | 225 | 0.0 | 0.0 | 0.00 | 0.00 | 0.00 | 99 | 1018.9 |
| 20260904040937 | 75 | 203 | 0.0 | 0.0 | 0.00 | 0.00 | 0.00 | 99 | 1019.3 |
| 20260904040322 | 75 | 338 | 0.0 | 0.0 | 0.00 | 0.00 | 0.00 | 99 | 1018.9 |
| 20260904035721 | 75 | 225 | 0.0 | 0.0 | 0.00 | 0.00 | 0.00 | 99 | 1018.9 |
| 20260904035147 | 75 | 225 | 0.0 | 0.0 | 0.00 | 0.00 | 0.00 | 99 | 1019.3 |
| 20260904034512 | 75 | 225 | 0.0 | 0.0 | 0.00 | 0.00 | 0.00 | 99 | 1019.3 |
| 20260904033348 | 76 | 248 | 0.0 | 0.9 | 0.00 | 0.00 | 0.00 | 99 | 1019.3 |
| 20260904032711 | 76 | 203 | 0.0 | 0.0 | 0.00 | 0.00 | 0.00 | 99 | 1019.3 |
| 20260904031525 | 76 | 225 | 0.0 | 0.0 | 0.00 | 0.00 | 0.00 | 99 | 1019.3 |
| 20260904030349 | 76 | 225 | 0.0 | 0.0 | 0.00 | 0.00 | 0.00 | 99 | 1019.3 |